Погода в Дидду

Мальдивы     6°53′15″N   73°06′52″E
темп.,
°C
ветер,
м/с
пор.,
м/с
влажн.,
%
обл.,
%
осадки,
мм/ч
давл.,
гПа
погр.,
м
8 мая, сб
сб823:00+30всв33695 0.0 1010867
02:00+30всв33685 0.0 1007930
05:00+30в33682 0.0 1008935
08:00+30в336813 0.0 1010926
11:00+30в336985 0.0 1010918
14:00+30в3371100 0.0 1007904
17:00+30в337080 0.1 1006807
20:00+30вюв336990 0.0 1008903
9 мая, вс
вс923:00+30вюв447047 0.0 1009814
02:00+29юв3471100 0.0 1006874
05:00+29юв3371100 0.0 1006908
08:00+30вюв447198 0.0 1008939
11:00+30вюв447195 0.0 1008946
14:00+30юв447195 0.0 1006986
17:00+30вюв3369100 0.0 1006956
20:00+30юв337099 0.4 1008762
10 мая, пн
пн1023:00+29юв3373100 2.2 1008567
02:00+29ююв1273100 0.0 1006670
05:00+29юв2273100 0.2 1007630
08:00+29ююв227261 1.5 1009485
11:00+29юв117096 2.4 1009627
14:00+29в116956 0.9 1007556
17:00+30вюв116756 0.9 1006686
20:00+30юв126789 0.0 1008800
11 мая, вт
вт1123:00+30ю11675 0.0 1009765
02:00+29юз116993 0.0 1007681
05:00+29ююз116989 0.0 1007654
08:00+29юз1169100 0.0 1009713
11:00+29зсз116899 0.0 1010747
14:00+30сз1167100 0.0 1008854
17:00+30зсз226779 0.0 1007930
20:00+30зсз226833 0.0 1009933
12 мая, ср
ср1223:00+30з337050 0.0 1009883
02:00+29зсз34718 0.1 1007856
05:00+29зсз447366 0.2 1007779
08:00+30зсз337153 0.4 1009854
11:00+30зсз336999 0.4 1009943
14:00+30зсз33706 0.0 1007915
17:00+30сз337067 0.2 1006921
20:00+29зсз447479 1.4 1008617